Location: Planetariul Baia Mare
(47.6578°N, 23.5640°E)
Time: 12:51:32
(UTC+03:00)

ISS - Pass Details

Date: 31 March 2016
Orbit: 408 x 418 km, 51.6° (Epoch: 19 June)

Event Time Altitude Azimuth Distance (km) Brightness Sun altitude
Rises 22:11:06 0° 288° (WNW) 2,339 1.3 -22.1°
Reaches altitude 10° 22:13:31 10° 271° (W) 1,480 -0.2 -22.4°
Enters shadow 22:15:32 20° 234° (SW) 1,031 -1.6 -22.7°
